Back to catalog

FENGYUN 1C DEB

AliveSSO
NORAD 29856·DEBRIS·🇨🇳 China

Launched May 10, 1999 from Taiyuan Satellite Launch Center

Loading…

Next Passes (next 24 hours)

TLE

FreshSource: Space-Track

Epoch: Sep 14, 2026, 14:24 UTC

1 29856U 99025FA  26257.60024124  .00017086  00000-0  26307-2 0  9998
2 29856  98.6914   6.6838 0237233 177.8846 311.1826 14.56315819  3807

Track FENGYUN 1C DEB in real time with AllMySat

Download on the App Store